TimeCDT,TemperatureF,Dew PointF,Humidity,Sea Level PressureIn,VisibilityMPH,Wind Direction,Wind SpeedMPH,Gust SpeedMPH,PrecipitationIn,Events,Conditions,WindDirDegrees,DateUTC
12:53 AM,60.1,51.1,72,30.09,10.0,North,9.2,-,N/A,,Clear,360,2012-10-09 05:53:00
1:53 AM,60.1,51.1,72,30.09,10.0,North,8.1,-,N/A,,Clear,10,2012-10-09 06:53:00
2:53 AM,57.2,51.8,82,30.07,10.0,North,6.9,-,N/A,,Clear,360,2012-10-09 07:53:00
3:53 AM,57.0,50.0,77,30.07,10.0,North,5.8,-,N/A,,Clear,360,2012-10-09 08:53:00
4:53 AM,55.9,51.1,84,30.08,10.0,North,4.6,-,N/A,,Clear,10,2012-10-09 09:53:00
5:53 AM,55.9,51.1,84,30.09,10.0,NNE,3.5,-,N/A,,Clear,20,2012-10-09 10:53:00
6:53 AM,55.0,52.0,89,30.10,10.0,Calm,Calm,-,0.01,,Clear,0,2012-10-09 11:53:00
7:53 AM,57.9,52.0,81,30.11,10.0,North,6.9,-,N/A,,Clear,350,2012-10-09 12:53:00
8:53 AM,62.1,54.0,75,30.12,10.0,North,4.6,-,0.01,,Clear,10,2012-10-09 13:53:00
9:53 AM,68.0,55.9,65,30.12,10.0,NNW,3.5,-,0.01,,Clear,330,2012-10-09 14:53:00
10:53 AM,73.0,55.0,53,30.12,10.0,North,5.8,-,0.01,,Clear,350,2012-10-09 15:53:00
11:53 AM,75.0,55.9,51,30.11,10.0,Variable,3.5,-,N/A,,Clear,0,2012-10-09 16:53:00
12:53 PM,78.1,57.0,48,30.08,10.0,NNW,5.8,-,N/A,,Clear,340,2012-10-09 17:53:00
1:53 PM,78.1,57.0,48,30.06,10.0,NW,6.9,16.1,N/A,,Clear,310,2012-10-09 18:53:00
2:53 PM,79.0,57.0,47,30.04,10.0,WSW,6.9,-,N/A,,Clear,250,2012-10-09 19:53:00
3:53 PM,79.0,55.9,45,30.04,10.0,Variable,4.6,-,N/A,,Clear,0,2012-10-09 20:53:00
4:53 PM,77.0,57.9,52,30.03,10.0,South,3.5,-,N/A,,Clear,170,2012-10-09 21:53:00
5:53 PM,73.9,61.0,64,30.03,10.0,South,5.8,-,N/A,,Clear,180,2012-10-09 22:53:00
6:53 PM,70.0,61.0,73,30.04,10.0,Calm,Calm,-,N/A,,Clear,0,2012-10-09 23:53:00
7:53 PM,66.9,61.0,81,30.05,10.0,Calm,Calm,-,N/A,,Clear,0,2012-10-10 00:53:00
8:53 PM,68.0,62.1,81,30.06,10.0,Calm,Calm,-,N/A,,Clear,0,2012-10-10 01:53:00
9:53 PM,66.0,61.0,84,30.08,10.0,Calm,Calm,-,N/A,,Clear,0,2012-10-10 02:53:00
10:53 PM,64.9,60.1,84,30.08,10.0,Calm,Calm,-,N/A,,Clear,0,2012-10-10 03:53:00
11:53 PM,63.0,57.9,84,30.08,10.0,Calm,Calm,-,0.01,,Clear,0,2012-10-10 04:53:00